TimeCDT,TemperatureF,Dew PointF,Humidity,Sea Level PressureIn,VisibilityMPH,Wind Direction,Wind SpeedMPH,Gust SpeedMPH,PrecipitationIn,Events,Conditions,WindDirDegrees,DateUTC
12:53 AM,50.0,46.0,86,29.97,10.0,Calm,Calm,-,N/A,,Mostly Cloudy,0,2012-11-01 05:53:00
1:53 AM,48.0,45.0,89,29.98,10.0,Calm,Calm,-,N/A,,Clear,0,2012-11-01 06:53:00
2:53 AM,46.9,44.1,90,29.98,9.0,Calm,Calm,-,N/A,,Clear,0,2012-11-01 07:53:00
3:53 AM,43.0,41.0,93,29.98,5.0,Calm,Calm,-,N/A,,Clear,0,2012-11-01 08:53:00
4:33 AM,41.0,39.2,93,29.99,2.0,Calm,Calm,-,N/A,,Clear,0,2012-11-01 09:33:00
4:41 AM,42.8,39.2,87,29.99,5.0,Calm,Calm,-,N/A,,Clear,0,2012-11-01 09:41:00
4:53 AM,42.1,39.9,92,29.99,7.0,Calm,Calm,-,N/A,,Clear,0,2012-11-01 09:53:00
5:53 AM,41.0,37.9,89,30.00,10.0,Calm,Calm,-,N/A,,Clear,0,2012-11-01 10:53:00
6:25 AM,39.2,37.4,93,30.01,1.5,Calm,Calm,-,N/A,,Clear,0,2012-11-01 11:25:00
6:35 AM,37.4,37.4,100,30.01,3.0,Calm,Calm,-,N/A,,Clear,0,2012-11-01 11:35:00
6:53 AM,39.0,36.0,89,30.01,10.0,Calm,Calm,-,N/A,,Clear,0,2012-11-01 11:53:00
7:53 AM,41.0,39.0,93,30.04,6.0,Calm,Calm,-,N/A,,Clear,0,2012-11-01 12:53:00
8:53 AM,50.0,44.1,80,30.06,10.0,Calm,Calm,-,N/A,,Clear,0,2012-11-01 13:53:00
9:53 AM,60.1,35.1,39,30.06,10.0,North,3.5,-,N/A,,Clear,360,2012-11-01 14:53:00
10:53 AM,63.0,34.0,34,30.07,10.0,NNW,8.1,-,N/A,,Clear,340,2012-11-01 15:53:00
11:53 AM,66.9,34.0,30,30.05,10.0,NNW,10.4,-,N/A,,Clear,340,2012-11-01 16:53:00
12:53 PM,70.0,36.0,29,30.01,10.0,NW,11.5,-,N/A,,Clear,320,2012-11-01 17:53:00
1:53 PM,70.0,36.0,29,30.00,10.0,NW,10.4,19.6,N/A,,Clear,310,2012-11-01 18:53:00
2:53 PM,70.0,37.0,30,29.98,10.0,WNW,12.7,19.6,N/A,,Clear,300,2012-11-01 19:53:00
3:53 PM,70.0,37.9,31,29.97,10.0,NW,11.5,-,N/A,,Clear,310,2012-11-01 20:53:00
4:53 PM,68.0,39.0,35,29.99,10.0,WNW,8.1,-,N/A,,Clear,300,2012-11-01 21:53:00
5:53 PM,64.9,39.0,39,30.00,10.0,Calm,Calm,-,N/A,,Clear,0,2012-11-01 22:53:00
6:53 PM,54.0,43.0,66,30.01,10.0,Calm,Calm,-,N/A,,Clear,0,2012-11-01 23:53:00
7:53 PM,50.0,43.0,77,30.02,10.0,Calm,Calm,-,N/A,,Clear,0,2012-11-02 00:53:00
8:53 PM,48.0,43.0,83,30.04,10.0,Calm,Calm,-,N/A,,Clear,0,2012-11-02 01:53:00
9:53 PM,46.9,43.0,86,30.04,10.0,Calm,Calm,-,N/A,,Clear,0,2012-11-02 02:53:00
10:53 PM,44.1,42.1,93,30.04,10.0,Calm,Calm,-,N/A,,Clear,0,2012-11-02 03:53:00
11:53 PM,42.1,39.9,92,30.04,10.0,Calm,Calm,-,N/A,,Clear,0,2012-11-02 04:53:00